Weather History for PAOM - March, 2013

Change the Weather History Date:

Wednesday, March 27, 2013

  Actual Average Record
Temperature  
Mean Temperature -10 °F 12 °F  
Max Temperature 2 °F 20 °F 40 °F (1926)
Min Temperature -21 °F - -33 °F (1920)
Degree Days  
Heating Degree Days 75 53  
Month to date heating degree days 1538 1485  
Since 1 July heating degree days 11076 10767  
Cooling Degree Days 0    
Month to date cooling degree days 0  
Year to date cooling degree days 0  
Moisture  
Dew Point -16 °F    
Average Humidity 0    
Maximum Humidity 0    
Minimum Humidity 0    
Precipitation  
Precipitation T in 0.02 in 0.43 in (1948)
Month to date precipitation 0.58 0.57  
Year to date precipitation 2.10 2.44  
Snow  
Snow T in 0.30 in 4.40 in (1994)
Month to date snowfall 8.1 7.9  
Since 1 July snowfall 49.4 64.6  
Snow Depth 25.00 in    
Sea Level Pressure  
Sea Level Pressure 30.18 in    
Wind  
Wind Speed 2 mph (North)    
Max Wind Speed 8 mph    
Max Gust Speed 9 mph    
Visibility 9 miles    
Events Snow    
T = Trace of Precipitation, MM = Missing Value Source: NWS Daily Summary

Daily Weather History Graph

Daily Weather History Graph

Search for Another Location

Airport or City:

Trip Planner

Search our weather history database for the weather conditions in past years. The results will help you decide how hot, cold, wet, or windy it might be!

Date:

Astronomy

Mar. 27, 2013 Rise Set
Actual Time 8:35 AM AKDT 9:40 PM AKDT
Civil Twilight 7:45 AM AKDT 10:30 PM AKDT
Nautical Twilight 6:43 AM AKDT 11:33 PM AKDT
Astronomical Twilight 5:26 AM AKDT 12:52 AM AKDT
Moon 11:15 PM AKDT (3/27) 8:12 AM AKDT (3/27)
Length of Visible Light 14h 44m
Length of Day
13h 05m
Full, 100% of the Moon is Illuminated
Mar 27
Full
Apr 2
Last Quarter
Apr 10
New
Apr 18
First Quarter
Apr 25
Full

Hourly Weather History & Observations

Time (AKDT) Temp. Windchill Dew Point Humidity Pressure Visibility Wind Dir Wind Speed Gust Speed Precip Events Conditions
12:27 AM -14.8 °F - -20.2 °F 77% 30.22 in 10.0 mi Calm Calm - N/A   Mostly Cloudy
12:53 AM -14.1 °F - -18.9 °F 79% 30.25 in 10.0 mi Calm Calm - N/A   Mostly Cloudy
1:24 AM -14.8 °F - -18.4 °F 84% 30.23 in 10.0 mi Calm Calm - N/A   Partly Cloudy
1:53 AM -15.0 °F - -20.0 °F 78% 30.23 in 10.0 mi Calm Calm - N/A   Partly Cloudy
2:20 AM -16.6 °F - -20.2 °F 84% 30.23 in 10.0 mi Calm Calm - N/A   Mostly Cloudy
2:53 AM -17.0 °F - -20.9 °F 82% 30.24 in 10.0 mi Calm Calm - N/A   Mostly Cloudy
3:43 AM -14.8 °F - -18.4 °F 84% 30.23 in 4.0 mi Calm Calm - N/A   Mostly Cloudy
3:53 AM -16.1 °F - -22.0 °F 74% 30.23 in 5.0 mi Calm Calm - 0.00 in Snow Light Snow
4:00 AM -14.8 °F - -20.2 °F 77% 30.22 in 8.0 mi Calm Calm - 0.00 in Snow Light Snow
4:53 AM -17.0 °F - -20.9 °F 82% 30.23 in 9.0 mi Calm Calm - 0.00 in   Mostly Cloudy
5:35 AM -16.6 °F - -20.2 °F 84% 30.23 in 10.0 mi Calm Calm - N/A   Scattered Clouds
5:53 AM -18.0 °F -33.0 °F -22.0 °F 82% 30.23 in 6.0 mi NNE 5.8 mph - N/A   Scattered Clouds
6:53 AM -17.0 °F - -20.9 °F 82% 30.23 in 10.0 mi Calm Calm - N/A   Scattered Clouds
7:53 AM -18.0 °F - -23.1 °F 78% 30.21 in 9.0 mi Calm Calm - N/A   Scattered Clouds
8:53 AM -17.0 °F -31.7 °F -20.9 °F 82% 30.21 in 8.0 mi NNE 5.8 mph - N/A   Scattered Clouds
9:53 AM -15.0 °F - -20.0 °F 78% 30.20 in 10.0 mi Calm Calm - N/A   Scattered Clouds
10:53 AM -11.0 °F -20.4 °F -16.1 °F 78% 30.20 in 10.0 mi North 3.5 mph - N/A   Scattered Clouds
11:53 AM -6.0 °F -14.7 °F -13.0 °F 72% 30.19 in 10.0 mi North 3.5 mph - N/A   Scattered Clouds
12:53 PM -4.0 °F -14.6 °F -11.0 °F 72% 30.19 in 10.0 mi North 4.6 mph - N/A   Partly Cloudy
1:53 PM -0.9 °F - -9.0 °F 69% 30.18 in 10.0 mi Calm Calm - N/A   Scattered Clouds
2:53 PM -0.0 °F -7.9 °F -9.9 °F 63% 30.18 in 10.0 mi Variable 3.5 mph - N/A   Partly Cloudy
3:53 PM -0.0 °F -7.9 °F -9.9 °F 63% 30.17 in 10.0 mi NE 3.5 mph - N/A   Scattered Clouds
4:53 PM 1.0 °F -8.7 °F -11.0 °F 57% 30.15 in 10.0 mi NNW 4.6 mph - N/A   Scattered Clouds
5:53 PM 1.9 °F -7.6 °F -11.0 °F 55% 30.14 in 10.0 mi North 4.6 mph - N/A   Mostly Cloudy
6:53 PM 1.0 °F -8.7 °F -9.9 °F 60% 30.11 in 10.0 mi North 4.6 mph - N/A   Mostly Cloudy
7:53 PM 1.0 °F - -11.0 °F 57% 30.09 in 10.0 mi Calm Calm - N/A   Mostly Cloudy
8:53 PM -2.0 °F - -11.9 °F 63% 30.07 in 10.0 mi Calm Calm - N/A   Mostly Cloudy
9:53 PM -5.1 °F -19.1 °F -13.0 °F 69% 30.05 in 10.0 mi North 6.9 mph - N/A   Mostly Cloudy
10:53 PM -8.0 °F - -15.0 °F 71% 30.04 in 10.0 mi Calm Calm - N/A   Scattered Clouds
11:53 PM -9.0 °F - -15.0 °F 75% 30.03 in 10.0 mi Calm Calm - N/A   Scattered Clouds